Wind_Speed
27 25 23 21 18 16 13 11 10 9 11 13 15 17 18 19 21 22 23 24 25 27 28 29 31 32 34 35 34 30 27 26 35 48 44 44 49 43 41 39 35 32 37
26 24 21 18 16 14 12 10 10 10 12 14 16 17 18 20 22 23 24 25 27 29 30 30 32 33 34 34 34 30 28 28 29 37 48 49 44 43 47 43 32 45 39
23 21 19 16 14 12 11 10 10 11 13 15 16 17 19 21 22 24 26 27 28 29 30 32 32 32 33 34 33 32 30 28 33 39 44 45 41 45 45 33 48 46 39
20 17 15 14 12 11 10 10 10 12 14 15 16 18 21 22 24 26 27 28 30 30 31 30 30 28 30 31 33 32 31 37 39 41 41 38 46 39 37 39 46 40 42
17 15 14 13 12 11 10 10 11 13 15 16 17 19 21 24 26 27 28 29 31 32 31 30 29 29 28 26 28 32 35 37 39 36 41 36 37 38 41 42 41 44 40
15 14 13 12 11 10 9 10 12 14 14 15 19 21 24 26 28 29 27 30 31 30 31 30 27 26 25 25 29 29 29 34 38 41 32 39 46 40 41 41 40 43 45
14 12 12 12 10 9 9 12 13 13 14 17 20 24 26 28 28 28 26 28 29 28 27 26 24 26 27 33 30 33 32 24 25 33 40 39 40 41 40 43 43 41 43
13 13 12 10 8 8 11 11 11 13 16 20 23 26 28 28 28 28 24 27 27 26 25 23 26 28 32 30 35 32 36 43 45 35 31 36 38 40 41 39 40 42 43
13 12 9 7 8 9 10 11 13 15 19 22 25 27 28 28 27 26 23 26 26 28 26 27 29 29 32 30 32 39 41 43 32 33 30 35 38 32 29 32 36 38 40
12 9 7 8 7 9 10 12 15 18 21 24 25 26 26 26 26 24 21 23 28 31 31 32 33 29 29 28 35 36 39 32 37 37 41 33 28 29 28 28 32 36 38
10 8 6 7 8 9 11 14 18 21 23 25 25 25 25 26 26 23 20 23 27 30 34 34 36 30 31 33 30 31 28 32 36 35 31 32 33 33 31 30 30 32 37
8 6 6 7 8 10 12 16 19 22 24 25 26 26 26 26 24 21 20 22 23 29 31 34 34 32 33 30 26 24 26 28 29 30 32 34 34 35 33 32 30 30 29
6 5 5 6 9 12 15 18 20 22 23 25 26 28 29 28 25 20 23 23 25 27 30 32 35 32 30 27 23 24 25 29 29 30 32 32 34 34 34 35 33 31 31
5 4 5 7 10 13 16 18 20 21 23 25 27 28 28 28 26 24 28 27 28 30 33 33 34 28 25 24 25 27 29 28 26 29 31 31 33 35 35 34 35 34 35
5 5 6 9 12 14 16 18 19 20 22 23 23 24 26 27 24 24 24 27 29 30 29 31 28 28 29 27 29 31 31 30 30 29 30 32 34 36 36 33 33 33 32
4 5 8 10 12 15 17 18 18 20 22 21 22 22 23 21 23 23 24 26 27 25 25 26 27 28 28 29 32 34 33 31 30 29 29 31 35 36 35 33 31 32 31
4 6 8 11 14 16 18 20 24 23 23 23 23 23 21 22 22 22 24 25 26 21 23 25 27 28 28 30 33 34 34 32 31 29 29 32 34 33 33 33 33 32 31
5 7 10 13 15 17 18 21 23 25 28 27 23 23 23 22 21 21 24 24 25 22 24 26 28 28 29 32 33 33 32 31 29 28 29 32 33 32 32 32 31 29 29
6 9 12 14 16 18 20 22 23 24 26 26 27 25 24 23 21 26 24 23 24 25 26 27 26 27 30 32 32 31 32 32 30 28 30 33 32 31 31 29 29 26 23
8 11 14 16 18 19 21 23 24 25 25 25 26 27 26 26 29 27 25 24 24 25 26 27 25 27 31 32 31 31 31 29 27 28 32 34 31 29 29 28 26 25 22
10 13 16 18 19 20 22 23 24 24 24 25 25 26 21 23 26 26 25 25 25 26 26 25 26 28 32 32 31 30 29 28 28 31 33 31 30 27 24 24 22 21 20
13 16 18 19 19 21 22 23 23 23 24 25 26 26 25 25 25 26 25 25 25 24 24 25 26 29 32 31 29 27 28 29 29 30 31 28 26 22 23 21 20 20 17
15 17 18 19 21 22 22 22 22 23 24 24 26 28 27 27 26 25 25 25 25 24 21 23 25 30 30 27 24 26 28 28 28 28 26 23 22 21 21 17 20 17 13
16 18 19 21 22 23 22 23 23 22 24 25 27 27 28 27 26 25 24 24 24 22 21 23 26 30 28 24 22 23 26 26 26 25 23 23 19 17 16 14 17 15 12
18 19 21 22 22 22 23 23 23 25 26 27 28 28 28 27 24 24 23 23 23 21 22 22 27 29 25 21 22 23 24 26 18 18 17 19 15 14 14 13 13 14 12
19 20 21 21 21 22 23 24 25 26 27 28 27 28 27 24 23 23 23 23 21 21 22 24 27 25 20 19 22 22 25 23 17 16 15 16 15 14 13 12 12 12 11
Wind_Direction
195 200 205 207 210 216 225 236 249 270 289 300 305 307 308 311 313 315 318 320 321 321 321 319 319 320 321 322 324 320 312 307 303 302 308 311 312 314 314 312 301 288 303
195 200 203 210 214 220 230 241 257 278 293 301 304 307 310 312 314 317 320 322 322 321 321 319 319 320 321 322 325 321 315 308 303 304 308 310 310 313 313 311 301 309 306
197 201 206 211 216 225 235 247 267 286 296 301 305 309 312 313 316 319 320 321 321 321 320 319 320 322 321 321 323 320 317 308 305 304 303 311 311 310 308 298 309 311 308
199 204 210 214 220 228 238 256 275 289 298 303 307 311 314 317 319 321 322 322 321 319 317 317 317 317 315 320 317 315 308 310 308 306 303 304 308 309 310 310 309 311 312
204 206 211 217 224 231 246 265 283 296 301 304 309 313 318 320 322 323 322 321 320 319 318 318 317 314 312 312 312 309 309 307 303 306 305 304 312 311 309 313 307 309 309
203 207 213 219 226 236 255 276 290 294 299 306 314 319 320 321 323 322 321 321 322 323 324 325 326 327 328 320 313 309 308 307 306 303 312 313 311 308 309 309 309 307 304
202 208 213 218 228 247 269 282 288 292 301 311 316 319 322 323 323 323 323 321 325 330 332 332 333 330 329 324 323 312 312 315 314 313 309 306 306 311 312 307 305 302 299
202 206 209 218 238 264 277 284 288 298 308 315 319 322 322 325 324 323 325 321 326 333 335 332 328 327 330 323 316 322 319 317 316 314 306 306 307 306 304 302 302 302 302
198 200 207 225 254 270 280 286 294 304 312 318 322 323 324 324 324 326 327 324 328 330 331 332 333 324 327 321 322 321 317 315 320 318 308 306 307 306 306 307 307 310 305
188 195 216 241 263 278 284 292 303 313 317 319 323 324 324 324 328 332 329 329 327 330 329 330 329 325 323 322 320 318 315 324 325 314 314 314 321 328 322 318 317 311 306
188 204 232 260 274 281 292 301 310 313 318 320 322 325 327 330 332 333 331 328 328 325 326 323 325 325 322 320 319 312 322 320 312 315 323 330 333 330 329 328 326 322 311
195 223 249 267 279 289 298 306 314 319 320 323 326 329 330 331 334 336 331 328 326 321 319 323 324 322 321 320 319 324 320 317 323 331 331 327 331 334 334 334 333 329 324
210 234 257 277 289 299 309 314 318 321 325 329 333 332 331 334 336 339 340 333 324 323 320 321 315 322 322 325 330 327 328 336 335 330 326 330 334 335 336 339 337 338 334
222 253 269 287 302 311 315 319 324 329 332 334 332 330 330 332 336 343 335 329 329 327 326 316 318 322 330 335 339 343 343 339 329 327 331 333 336 339 339 342 340 344 341
239 259 287 303 308 313 320 325 329 334 336 331 329 327 328 328 334 327 328 327 326 322 319 317 329 338 339 342 342 344 344 342 340 337 334 335 339 341 342 345 347 345 345
253 287 300 305 314 321 323 325 331 333 333 333 331 329 326 323 325 329 328 324 322 326 320 331 337 338 339 341 342 342 342 342 341 338 336 339 341 342 342 347 349 349 347
277 291 306 319 323 323 328 331 330 331 333 336 335 333 332 327 329 334 324 327 323 330 336 339 336 338 340 341 341 339 338 341 340 339 339 341 343 345 346 348 349 349 350
288 312 320 320 323 329 331 330 331 333 334 337 339 338 337 332 337 328 331 327 335 343 342 338 337 339 341 341 339 338 338 339 339 340 339 343 348 347 347 347 348 347 346
309 312 317 325 329 328 327 327 330 332 334 336 337 338 341 340 334 333 335 340 341 341 340 338 339 340 342 340 339 337 337 337 339 337 341 345 349 348 347 347 346 347 343
306 316 324 325 324 325 326 329 332 333 334 334 336 339 344 343 330 336 341 343 341 339 339 337 340 341 342 341 338 336 336 339 341 340 340 345 349 348 347 346 346 346 346
314 322 322 321 323 326 329 330 331 330 330 331 335 338 337 326 331 338 340 340 339 338 338 337 339 342 344 341 338 336 337 340 340 337 340 345 347 347 348 346 346 346 347
317 318 320 323 326 327 327 327 326 326 328 331 335 337 338 335 336 337 337 338 338 338 338 338 340 344 343 340 338 339 340 340 338 338 341 345 348 351 350 349 346 345 349
315 318 322 324 325 324 323 324 326 328 329 331 333 335 337 335 335 336 336 337 337 340 342 341 344 345 343 341 343 343 343 342 341 343 345 347 350 351 348 348 351 358 4
317 323 324 324 323 322 323 326 328 327 327 329 331 334 332 333 332 333 335 337 338 341 343 346 346 344 343 346 348 345 348 344 346 351 346 344 344 344 348 354 356 3 13
322 323 322 322 323 325 326 327 326 326 327 328 329 329 329 328 328 333 335 337 338 341 347 348 347 347 346 349 349 348 348 350 348 344 344 350 352 356 354 2 2 8 23
322 322 322 324 325 326 327 326 324 325 325 325 326 325 325 326 328 332 335 338 339 343 349 349 350 349 349 349 352 354 352 355 352 352 356 2 9 12 16 14 12 19 42
Height
1464 1469 1473 1476 1478 1480 1481 1481 1481 1481 1479 1478 1475 1472 1469 1466 1463 1460 1457 1453 1449 1445 1441 1436 1431 1426 1421 1417 1413 1409 1404 1401 1392 1375 1376 1371 1366 1361 1357 1353 1349 1345 1342
1464 1467 1471 1475 1477 1478 1479 1479 1479 1477 1476 1474 1472 1469 1465 1463 1460 1456 1452 1448 1444 1439 1434 1429 1424 1420 1415 1410 1406 1402 1398 1394 1389 1378 1368 1364 1360 1355 1349 1342 1338 1335 1330
1463 1466 1470 1473 1475 1476 1476 1476 1476 1474 1473 1471 1468 1465 1462 1460 1456 1452 1448 1443 1439 1434 1429 1423 1418 1414 1408 1404 1400 1395 1391 1386 1382 1375 1364 1358 1352 1347 1340 1334 1329 1323 1318
1462 1465 1468 1471 1473 1474 1474 1474 1473 1472 1470 1467 1464 1462 1458 1455 1451 1447 1442 1438 1433 1428 1423 1418 1413 1408 1403 1398 1394 1390 1385 1380 1374 1367 1358 1352 1346 1339 1334 1327 1316 1313 1306
1461 1464 1467 1469 1470 1471 1471 1471 1470 1469 1466 1464 1461 1459 1455 1450 1446 1441 1436 1432 1426 1421 1416 1411 1407 1402 1399 1395 1390 1384 1379 1373 1366 1359 1351 1345 1339 1333 1327 1319 1311 1303 1297
1459 1462 1465 1467 1468 1469 1469 1469 1467 1465 1463 1461 1457 1453 1450 1445 1441 1436 1431 1425 1420 1414 1408 1404 1399 1396 1392 1389 1384 1379 1375 1367 1361 1354 1346 1340 1331 1326 1319 1312 1305 1298 1284
1458 1461 1463 1464 1466 1466 1466 1465 1464 1462 1460 1457 1453 1449 1445 1440 1435 1430 1425 1419 1415 1409 1404 1399 1395 1392 1387 1381 1375 1370 1364 1361 1356 1350 1341 1333 1326 1320 1314 1306 1299 1292 1282
1456 1459 1461 1463 1464 1464 1463 1462 1461 1459 1456 1453 1450 1445 1440 1435 1430 1425 1420 1414 1410 1406 1402 1397 1392 1386 1382 1376 1370 1363 1358 1352 1348 1341 1335 1328 1322 1315 1309 1301 1293 1284 1275
1455 1458 1460 1461 1461 1461 1460 1459 1458 1456 1453 1450 1445 1440 1435 1431 1425 1419 1414 1409 1405 1401 1397 1393 1387 1382 1377 1372 1366 1358 1350 1344 1339 1333 1329 1322 1315 1308 1302 1294 1286 1278 1266
1455 1457 1458 1459 1459 1459 1458 1456 1455 1452 1449 1445 1441 1436 1431 1425 1420 1415 1410 1405 1400 1394 1390 1386 1383 1378 1372 1367 1361 1352 1344 1337 1331 1324 1319 1312 1307 1300 1295 1289 1281 1273 1264
1454 1456 1457 1457 1457 1457 1456 1454 1451 1448 1445 1441 1436 1432 1427 1421 1416 1411 1407 1403 1398 1392 1386 1381 1376 1372 1367 1361 1356 1348 1341 1335 1327 1320 1313 1306 1300 1294 1288 1282 1276 1269 1260
1453 1454 1455 1455 1455 1455 1453 1451 1448 1444 1440 1436 1431 1426 1422 1417 1413 1408 1404 1401 1396 1390 1383 1378 1371 1367 1361 1355 1348 1343 1338 1331 1323 1315 1309 1302 1295 1288 1282 1276 1269 1262 1256
1452 1454 1454 1454 1453 1452 1450 1447 1444 1440 1435 1430 1425 1420 1416 1412 1408 1405 1400 1397 1393 1387 1381 1375 1368 1361 1355 1348 1343 1339 1333 1325 1319 1313 1306 1299 1292 1285 1277 1269 1263 1256 1249
1452 1453 1453 1452 1451 1449 1446 1444 1440 1436 1431 1426 1421 1416 1411 1407 1403 1399 1396 1392 1387 1382 1376 1369 1363 1357 1351 1345 1339 1333 1328 1322 1317 1311 1303 1296 1289 1281 1273 1266 1258 1250 1242
1451 1451 1451 1450 1448 1446 1443 1440 1436 1433 1428 1423 1418 1414 1408 1403 1400 1399 1394 1388 1384 1378 1372 1364 1358 1352 1345 1340 1335 1329 1324 1318 1312 1306 1300 1293 1285 1277 1270 1263 1256 1249 1242
1449 1449 1448 1447 1445 1443 1440 1437 1434 1430 1426 1422 1417 1412 1406 1403 1399 1395 1391 1386 1380 1373 1367 1361 1354 1349 1343 1337 1331 1325 1320 1315 1309 1303 1297 1290 1282 1274 1266 1260 1255 1248 1241
1448 1447 1446 1444 1442 1439 1436 1432 1428 1426 1422 1418 1413 1408 1404 1399 1395 1392 1386 1381 1374 1369 1364 1358 1352 1347 1341 1335 1329 1323 1316 1311 1306 1300 1294 1287 1281 1273 1266 1258 1252 1247 1240
1446 1445 1443 1441 1438 1435 1432 1429 1425 1420 1414 1411 1409 1404 1400 1395 1391 1388 1382 1375 1370 1365 1361 1355 1350 1344 1339 1333 1326 1320 1314 1309 1303 1297 1291 1285 1278 1271 1264 1258 1252 1247 1241
1443 1442 1440 1438 1435 1432 1429 1426 1421 1417 1413 1408 1403 1400 1396 1391 1388 1383 1378 1373 1367 1362 1358 1353 1348 1342 1336 1330 1324 1317 1311 1305 1300 1294 1289 1283 1276 1270 1264 1258 1253 1248 1243
1441 1439 1437 1435 1432 1429 1426 1422 1417 1414 1410 1406 1401 1397 1392 1388 1383 1379 1374 1370 1365 1360 1355 1350 1345 1340 1334 1327 1321 1314 1308 1302 1297 1292 1286 1281 1275 1269 1263 1258 1253 1247 1243
1438 1437 1435 1432 1429 1426 1422 1418 1414 1411 1407 1402 1399 1395 1392 1388 1381 1376 1371 1367 1362 1358 1353 1347 1342 1337 1330 1324 1317 1311 1306 1300 1295 1289 1284 1278 1273 1267 1263 1258 1253 1249 1244
1436 1434 1431 1429 1426 1422 1418 1415 1411 1407 1403 1399 1395 1391 1388 1383 1378 1373 1369 1364 1360 1355 1350 1345 1339 1334 1327 1321 1314 1309 1303 1298 1292 1287 1281 1275 1271 1267 1262 1258 1254 1249 1245
1433 1431 1428 1425 1422 1418 1415 1411 1407 1403 1399 1396 1392 1388 1384 1379 1375 1370 1366 1361 1357 1352 1348 1343 1337 1331 1325 1319 1313 1307 1301 1295 1290 1284 1278 1274 1270 1266 1263 1259 1255 1250 1246
1430 1428 1425 1421 1418 1414 1411 1407 1404 1400 1397 1393 1388 1384 1380 1376 1372 1367 1363 1358 1354 1349 1345 1340 1335 1329 1322 1316 1311 1306 1300 1294 1287 1281 1277 1273 1270 1268 1264 1260 1257 1252 1248
1427 1424 1421 1418 1414 1411 1407 1404 1400 1396 1393 1389 1385 1381 1376 1372 1368 1364 1360 1355 1351 1346 1342 1338 1333 1326 1320 1314 1310 1304 1298 1291 1287 1283 1279 1275 1271 1268 1265 1262 1258 1255 1251
1423 1420 1417 1414 1410 1407 1403 1400 1396 1393 1389 1385 1381 1376 1372 1368 1365 1361 1357 1352 1348 1344 1340 1336 1330 1324 1318 1313 1308 1302 1296 1290 1286 1283 1279 1276 1272 1269 1266 1263 1260 1257 1254